This is the latest recevied weather packets stored in our database for station/object K1RFS. If no packets are shown the sender has not sent any weather packets the latest 10 day(s).
| Time | Temp. | Humidity | Pressure | Rain* | Wind** | Luminosity | Snow |
|---|---|---|---|---|---|---|---|
| 1778063613 | 5.56° C | 74% | 1000.8 hPa | 0 mm | - | 0 W/m² | - |
| 1778063310 | 5.56° C | 74% | 1000.2 hPa | 0 mm | - | 0 W/m² | - |
| 1778063008 | 5° C | 77% | 1000.5 hPa | 0 mm | - | 0 W/m² | - |
| 1778062706 | 5° C | 80% | 1000.6 hPa | 0 mm | - | 0 W/m² | - |
| 1778062401 | 5° C | 82% | 1000.2 hPa | 0 mm | - | 0 W/m² | - |
| 1778062100 | 4.44° C | 84% | 1000 hPa | 0 mm | - | 0 W/m² | - |
| 1778061798 | 4.44° C | 85% | 1000 hPa | 0 mm | - | 0 W/m² | - |
| 1778061496 | 4.44° C | 86% | 999.7 hPa | 3.05 mm | - | 0 W/m² | - |
| 1778061192 | 4.44° C | 87% | 999.7 hPa | 6.6 mm | - | 0 W/m² | - |
| 1778060889 | 5° C | 88% | 999.8 hPa | 3.56 mm | - | 0 W/m² | - |
| 1778060588 | 5° C | 89% | 999.6 hPa | 0 mm | - | 0 W/m² | - |
| 1778060285 | 5° C | 90% | 999.7 hPa | 0 mm | - | 0 W/m² | - |
| 1778059982 | 5° C | 91% | 999.3 hPa | 0 mm | - | 0 W/m² | - |
| 1778059681 | 5° C | 91% | 999.4 hPa | 0 mm | - | 0 W/m² | - |
| 1778059378 | 5° C | 91% | 999.4 hPa | 0 mm | - | 0 W/m² | - |
| 1778059075 | 5° C | 91% | 999.4 hPa | 0 mm | - | 0 W/m² | - |
| 1778058772 | 5° C | 91% | 999.2 hPa | 1.27 mm | - | 0 W/m² | - |
| 1778058470 | 5° C | 90% | 999.2 hPa | 4.32 mm | - | 0 W/m² | - |
| 1778058167 | 5° C | 90% | 999.2 hPa | 6.1 mm | - | 0 W/m² | - |
| 1778057864 | 5° C | 89% | 999 hPa | 4.83 mm | - | 0 W/m² | - |
| 1778057560 | 5° C | 88% | 998.9 hPa | 6.1 mm | - | 0 W/m² | - |
| 1778057256 | 5° C | 86% | 998.8 hPa | 8.89 mm | - | 0 W/m² | - |
| 1778056953 | 5.56° C | 83% | 998.6 hPa | 6.1 mm | - | 0 W/m² | - |
| 1778056650 | 7.78° C | 73% | 998.3 hPa | 0 mm | - | 0 W/m² | - |
| 1778056348 | 8.89° C | 77% | 997.5 hPa | 0 mm | - | 0 W/m² | - |
* Rain latest hour (hover to see other rain measurements)
** Current wind speed in m/s (hover to see current wind gust speed)